TimeCDT,TemperatureF,Dew PointF,Humidity,Sea Level PressureIn,VisibilityMPH,Wind Direction,Wind SpeedMPH,Gust SpeedMPH,PrecipitationIn,Events,Conditions,WindDirDegrees,DateUTC
12:53 AM,70.0,64.9,84,30.00,10.0,North,6.9,-,N/A,,Clear,360,2012-10-07 05:53:00
1:53 AM,69.1,64.9,87,29.99,10.0,North,8.1,-,N/A,,Clear,360,2012-10-07 06:53:00
2:53 AM,66.9,63.0,87,29.99,10.0,North,9.2,-,N/A,,Clear,360,2012-10-07 07:53:00
3:50 AM,64.4,62.6,94,29.99,10.0,North,9.2,-,0.01,,Partly Cloudy,350,2012-10-07 08:50:00
3:53 AM,64.9,62.1,90,29.99,10.0,North,11.5,-,0.01,,Partly Cloudy,350,2012-10-07 08:53:00
4:11 AM,64.4,60.8,88,29.99,10.0,North,13.8,-,N/A,,Mostly Cloudy,350,2012-10-07 09:11:00
4:53 AM,64.0,61.0,90,30.00,10.0,North,10.4,-,N/A,,Overcast,350,2012-10-07 09:53:00
5:25 AM,64.4,60.8,88,30.00,8.0,North,9.2,-,N/A,,Overcast,360,2012-10-07 10:25:00
5:53 AM,63.0,61.0,93,30.01,8.0,North,11.5,-,N/A,,Overcast,350,2012-10-07 10:53:00
6:53 AM,62.1,60.1,93,30.03,7.0,North,10.4,-,0.01,,Overcast,350,2012-10-07 11:53:00
7:53 AM,63.0,60.1,90,30.05,6.0,NNW,11.5,-,N/A,,Overcast,340,2012-10-07 12:53:00
8:53 AM,63.0,59.0,87,30.07,8.0,North,12.7,-,N/A,,Overcast,350,2012-10-07 13:53:00
9:53 AM,64.0,59.0,84,30.09,10.0,North,13.8,21.9,N/A,,Overcast,350,2012-10-07 14:53:00
10:53 AM,69.1,60.1,73,30.08,10.0,North,12.7,20.7,N/A,,Overcast,350,2012-10-07 15:53:00
11:25 AM,69.8,59.0,68,30.07,10.0,NNW,16.1,-,N/A,,Scattered Clouds,340,2012-10-07 16:25:00
11:53 AM,72.0,60.1,66,30.07,10.0,NNW,12.7,-,N/A,,Clear,340,2012-10-07 16:53:00
12:53 PM,75.0,60.1,60,30.04,10.0,North,10.4,-,N/A,,Clear,10,2012-10-07 17:53:00
1:53 PM,78.1,62.1,58,30.00,10.0,North,10.4,17.3,N/A,,Clear,10,2012-10-07 18:53:00
2:53 PM,81.0,63.0,54,29.98,10.0,North,10.4,16.1,N/A,,Clear,10,2012-10-07 19:53:00
3:53 PM,80.1,63.0,56,29.99,10.0,NNW,9.2,-,N/A,,Clear,330,2012-10-07 20:53:00
4:53 PM,78.1,62.1,58,29.99,10.0,NNW,13.8,-,N/A,,Clear,330,2012-10-07 21:53:00
5:53 PM,73.9,61.0,64,29.99,10.0,NNW,11.5,-,N/A,,Clear,340,2012-10-07 22:53:00
6:53 PM,71.1,60.1,68,30.02,10.0,North,9.2,-,N/A,,Clear,350,2012-10-07 23:53:00
7:53 PM,68.0,57.9,70,30.04,10.0,North,10.4,-,N/A,,Clear,360,2012-10-08 00:53:00
8:53 PM,66.0,55.9,70,30.07,10.0,North,11.5,-,N/A,,Clear,360,2012-10-08 01:53:00
9:53 PM,64.0,55.0,73,30.08,10.0,North,10.4,-,N/A,,Clear,360,2012-10-08 02:53:00
10:53 PM,62.1,54.0,75,30.08,10.0,North,9.2,-,N/A,,Clear,360,2012-10-08 03:53:00
11:53 PM,61.0,53.1,75,30.07,10.0,North,10.4,-,N/A,,Clear,360,2012-10-08 04:53:00